Location: Shenandoah County Park
(38.9356°N, 78.4524°W)
Time: 05:42:13
(UTC-04:00)

Transit 2A - Pass Details

Date: 19 June 2024
Orbit: 591 x 960 km, 66.7° (Epoch: 23 July)

Event Time Altitude Azimuth Distance (km) Brightness Sun altitude
Rises 23:58:00 0° 345° (NNW) 3,495 10.8 -25.1°
Reaches altitude 10° 00:02:15 10° 14° (NNE) 2,621 9.5 -25.3°
Maximum altitude 00:04:46 13° 38° (NE) 2,468 9.0 -25.5°
Drops below altitude 10° 00:07:19 10° 63° (ENE) 2,672 8.9 -25.6°
Enters shadow 00:11:10 - 88° (E) 3,484 9.3 -25.9°
